Home > Weather > Strausberg > Past weeks

Flag for Germany Weather for the Past 2 Weeks in Strausberg, Brandenburg, Germany

Now
34 °F

Fog.


Feels Like: 26 °F
Forecast: 34 / 42 °F
Wind: 10 mph from East

Location: Berlin-Schoenefeld

Current Time: Feb 13, 2016 at 11:41:56 PM

Latest Report: Feb 13, 2016 at 10:50 PM


Visibility: 3 mi

Pressure: 29.30 "Hg

Humidity: 93%

Dew point: 32 °F

Location of StrausbergLocation

Historic Weather in Strausberg — Graph

°F

Strausberg Temperature Yesterday

Maximum temperature yesterday: 43 °F (at 12:50 PM)
Minimum temperature yesterday: 28 °F (at 11:50 PM)
Average temperature yesterday: 35 °F

High & Low Weather Summary for the Past Weeks

 TemperatureHumidityPressure
High54 °F (Feb 2, 12:50 PM)100% (Feb 1, 8:50 AM)30.24 "Hg (Feb 1, 8:50 AM)
Low27 °F (Feb 13, 12:20 AM)47% (Feb 2, 1:20 PM)28.97 "Hg (Feb 9, 9:20 PM)
Average42 °F80%29.69 "Hg
* Reported Jan 29 9:20 PM — Feb 13 9:50 PM, Strausberg, Weather by CustomWeather, © 2016

Note: Actual official high and low records may vary slightly from our data, if they occured in-between our weather recording intervals... More about our weather records

Advertising

Strausberg Weather History for the Previous 24 Hours

 ConditionsComfort  
Time TempWeatherWind HumidityBarometerVisibility
9:50 PM
Sat, Feb 13
34 °FFog.12 mph93%29.30 "Hg3 mi
9:20 PM34 °FFog.8 mph93%29.30 "Hg3 mi
8:50 PM34 °FFog.10 mph93%29.30 "Hg3 mi
8:20 PM34 °FFog.12 mph93%29.30 "Hg3 mi
7:50 PM32 °FPassing clouds.10 mph93%29.33 "Hg4 mi
7:20 PM34 °FClear.10 mph93%29.33 "Hg4 mi
6:50 PM34 °FClear.10 mph93%29.33 "Hg6 mi
6:20 PM36 °FPassing clouds.12 mph87%29.33 "HgN/A
5:50 PM37 °FPassing clouds.10 mph81%29.33 "HgN/A
5:20 PM39 °FClear.5 mph65%29.33 "Hg10 mi
4:50 PM39 °FScattered clouds.5 mph65%29.33 "HgN/A
4:20 PM41 °FPassing clouds.6 mph61%29.33 "HgN/A
3:50 PM43 °FPassing clouds.8 mph61%29.36 "HgN/A
3:20 PM43 °FPassing clouds.7 mph61%29.36 "HgN/A
2:50 PM43 °FPassing clouds.8 mph61%29.36 "HgN/A
2:20 PM43 °FPassing clouds.8 mph61%29.36 "HgN/A
1:50 PM43 °FPassing clouds.10 mph61%29.36 "HgN/A
1:20 PM43 °FPassing clouds.9 mph61%29.39 "HgN/A
12:50 PM43 °FPassing clouds.8 mph66%29.39 "HgN/A
12:20 PM41 °FPassing clouds.8 mph70%29.42 "HgN/A
11:50 AM39 °FPassing clouds.5 mph75%29.42 "HgN/A
11:20 AM37 °FSunny.6 mph81%29.45 "Hg10 mi
10:50 AM36 °FPassing clouds.5 mph87%29.45 "HgN/A
10:20 AM34 °FPassing clouds.3 mph93%29.45 "HgN/A
9:50 AM32 °FClear.6 mph93%29.45 "Hg5 mi
9:20 AM30 °FClear.6 mph100%29.45 "Hg4 mi
8:50 AM28 °FClear.6 mph100%29.45 "Hg4 mi
8:20 AM28 °FClear.3 mph100%29.47 "Hg4 mi
7:50 AM27 °FScattered clouds.6 mph100%29.47 "Hg4 mi
7:20 AM27 °FPassing clouds.6 mph100%29.47 "Hg5 mi
6:50 AM27 °FPassing clouds.7 mph100%29.47 "HgN/A
6:20 AM27 °FClear.6 mph100%29.47 "Hg10 mi
5:50 AM27 °FFog.5 mph93%29.47 "HgN/A
5:20 AM27 °FFog.5 mph100%29.47 "HgN/A
4:20 AM27 °FClear.5 mph100%29.47 "Hg10 mi
3:20 AM27 °FClear.6 mph100%29.50 "Hg10 mi
2:20 AM27 °FClear.5 mph100%29.50 "Hg10 mi
1:50 AM27 °FClear.3 mph100%29.50 "Hg10 mi
1:20 AM27 °FClear.3 mph100%29.50 "Hg10 mi
12:50 AM28 °FClear.5 mph93%29.50 "Hg10 mi
12:20 AM27 °FClear.2 mph100%29.50 "Hg10 mi
11:50 PM
Fri, Feb 12
28 °FClear.3 mph100%29.50 "Hg10 mi
11:20 PM30 °FClear.5 mph93%29.53 "Hg10 mi
Weather by CustomWeather, © 2016

See weather overviewHow to use our weather pages